Archiv-/Tagesdaten

--Timestamp---	Temp	Chill	HIndex	Humid	Dewpt	Wind	HiWind	WindDir	Rain	Barom	Solar	ET	UV
--------------	----	-----	------	-----	-----	----	------	-------	----	-----	-----	--	--
20070929 00:05	10.2	10.2	10.2	76	6.2	10	21	247	0.00	1010.400	0	0.000	0
20070929 00:10	10.2	10.2	10.2	75	6.0	11	19	247	0.00	1010.467	0	0.000	0
20070929 00:15	10.2	10.2	10.2	75	6.0	8	19	247	0.00	1010.535	0	0.000	0
20070929 00:20	10.2	10.2	10.2	75	6.0	11	26	247	0.20	1010.535	0	0.000	0
20070929 00:25	10.3	10.3	10.3	75	6.0	10	23	247	0.00	1010.467	0	0.000	0
20070929 00:30	10.3	10.3	10.3	75	6.0	11	24	270	0.00	1010.569	0	0.000	0
20070929 00:35	10.3	10.3	10.3	75	6.0	11	31	247	0.00	1010.535	0	0.000	0
20070929 00:40	10.3	10.3	10.3	75	6.1	11	23	247	0.00	1010.569	0	0.000	0
20070929 00:45	10.3	10.3	10.3	75	6.0	11	23	270	0.00	1010.637	0	0.000	0
20070929 00:50	10.3	10.3	10.3	75	6.1	11	29	247	0.00	1010.637	0	0.000	0
20070929 00:55	10.4	10.4	10.4	75	6.1	13	31	247	0.00	1010.671	0	0.000	0
20070929 01:00	10.4	10.4	10.4	74	6.0	11	27	247	0.00	1010.738	0	0.020	0
20070929 01:05	10.4	10.4	10.4	74	6.0	11	31	247	0.00	1010.738	0	0.000	0
20070929 01:10	10.4	10.4	10.4	74	6.0	13	29	247	0.00	1010.840	0	0.000	0
20070929 01:15	10.4	10.4	10.4	74	6.0	10	21	247	0.00	1010.806	0	0.000	0
20070929 01:20	10.4	10.4	10.4	75	6.1	10	21	270	0.00	1010.908	0	0.000	0
20070929 01:25	10.3	10.3	10.3	75	6.1	11	26	247	0.00	1010.975	0	0.000	0
20070929 01:30	10.4	10.4	10.4	74	6.0	13	26	247	0.00	1011.077	0	0.000	0
20070929 01:35	10.4	10.4	10.4	74	6.0	11	27	247	0.00	1011.077	0	0.000	0
20070929 01:40	10.5	10.5	10.5	74	6.1	13	27	247	0.00	1011.145	0	0.000	0
20070929 01:45	10.5	10.5	10.5	74	6.1	11	21	247	0.00	1011.212	0	0.000	0
20070929 01:50	10.6	10.6	10.6	74	6.1	10	21	247	0.00	1011.314	0	0.000	0
20070929 01:55	10.5	10.5	10.5	77	6.6	11	24	247	0.00	1011.246	0	0.000	0
20070929 02:00	10.6	10.6	10.6	74	6.1	11	26	247	0.00	1011.314	0	0.040	0
20070929 02:05	10.6	10.6	10.6	74	6.2	11	27	247	0.00	1011.382	0	0.000	0
20070929 02:10	10.7	10.7	10.7	73	6.1	11	26	247	0.00	1011.416	0	0.000	0
20070929 02:15	10.7	10.7	10.7	73	6.0	10	23	247	0.00	1011.551	0	0.000	0
20070929 02:20	10.7	10.7	10.7	73	6.0	11	24	247	0.00	1011.483	0	0.000	0
20070929 02:25	10.7	10.7	10.7	74	6.2	11	24	247	0.00	1011.551	0	0.000	0
20070929 02:30	10.7	10.7	10.7	74	6.2	11	23	247	0.00	1011.585	0	0.000	0
20070929 02:35	10.7	10.7	10.7	73	6.0	14	31	247	0.00	1011.551	0	0.000	0
20070929 02:40	10.7	10.7	10.7	73	6.1	13	27	247	0.00	1011.619	0	0.000	0
20070929 02:45	10.7	10.7	10.7	74	6.2	11	24	247	0.00	1011.585	0	0.000	0
20070929 02:50	10.6	10.6	10.6	74	6.2	13	27	247	0.00	1011.551	0	0.000	0
20070929 02:55	10.6	10.6	10.6	74	6.1	11	26	247	0.00	1011.517	0	0.000	0
20070929 03:00	10.7	10.7	10.7	74	6.2	10	23	247	0.00	1011.483	0	0.040	0
20070929 03:05	10.7	10.7	10.7	73	6.1	13	27	247	0.00	1011.517	0	0.000	0
20070929 03:10	10.7	10.7	10.7	74	6.3	13	29	247	0.00	1011.517	0	0.000	0
20070929 03:15	10.7	10.7	10.7	73	6.1	11	26	247	0.00	1011.517	0	0.000	0
20070929 03:20	10.7	10.7	10.7	74	6.3	10	27	247	0.00	1011.585	0	0.000	0
20070929 03:25	10.8	10.8	10.8	73	6.2	16	35	247	0.00	1011.686	0	0.000	0
20070929 03:30	10.8	10.8	10.8	73	6.2	11	32	247	0.00	1011.686	0	0.000	0
20070929 03:35	10.8	10.8	10.8	72	6.0	13	31	247	0.00	1011.720	0	0.000	0
20070929 03:40	10.8	10.8	10.8	73	6.2	14	27	247	0.00	1011.822	0	0.000	0
20070929 03:45	10.8	10.8	10.8	72	5.9	11	29	270	0.00	1011.924	0	0.000	0
20070929 03:50	10.8	10.8	10.8	73	6.1	10	21	247	0.00	1011.924	0	0.000	0
20070929 03:55	10.8	10.8	10.8	73	6.1	11	27	247	0.00	1011.991	0	0.000	0
20070929 04:00	10.7	10.7	10.7	73	6.1	13	29	247	0.00	1011.991	0	0.040	0
20070929 04:05	10.7	10.7	10.7	74	6.2	10	29	247	0.00	1012.025	0	0.000	0
20070929 04:10	10.6	10.6	10.6	74	6.2	8	21	270	0.00	1011.957	0	0.000	0
20070929 04:15	10.7	10.7	10.7	74	6.2	11	24	247	0.00	1011.890	0	0.000	0
20070929 04:20	10.7	10.7	10.7	74	6.2	10	21	247	0.00	1011.957	0	0.000	0
20070929 04:25	10.7	10.7	10.7	74	6.3	13	29	247	0.00	1011.991	0	0.000	0
20070929 04:30	10.7	10.7	10.7	74	6.3	11	23	247	0.00	1012.025	0	0.000	0
20070929 04:35	10.7	10.7	10.7	74	6.2	8	18	247	0.00	1012.059	0	0.000	0
20070929 04:40	10.7	10.7	10.7	74	6.2	11	24	247	0.00	1012.059	0	0.000	0
20070929 04:45	10.7	10.7	10.7	74	6.3	13	26	247	0.00	1011.991	0	0.000	0
20070929 04:50	10.7	10.7	10.7	74	6.3	10	23	270	0.00	1012.059	0	0.000	0
20070929 04:55	10.6	10.6	10.6	75	6.4	10	23	247	0.00	1012.059	0	0.000	0
20070929 05:00	10.7	10.7	10.7	74	6.2	10	26	247	0.00	1012.127	0	0.040	0
20070929 05:05	10.7	10.7	10.7	75	6.4	13	29	247	0.00	1012.093	0	0.000	0
20070929 05:10	10.6	10.6	10.6	76	6.6	11	26	247	0.00	1012.059	0	0.000	0
20070929 05:15	10.6	10.6	10.6	75	6.4	11	37	247	0.00	1012.161	0	0.000	0
20070929 05:20	10.6	10.6	10.6	75	6.4	10	23	247	0.00	1012.161	0	0.000	0
20070929 05:25	10.6	10.6	10.6	75	6.4	11	21	270	0.00	1012.262	0	0.000	0
20070929 05:30	10.6	10.6	10.6	75	6.4	10	24	247	0.00	1012.262	0	0.000	0
20070929 05:35	10.6	10.6	10.6	75	6.3	10	24	247	0.00	1012.296	0	0.000	0
20070929 05:40	10.6	10.6	10.6	75	6.3	10	29	247	0.00	1012.431	0	0.000	0
20070929 05:45	10.6	10.6	10.6	75	6.3	10	24	247	0.00	1012.330	0	0.000	0
20070929 05:50	10.6	10.6	10.6	74	6.1	10	24	247	0.00	1012.533	0	0.000	0
20070929 05:55	10.6	10.6	10.6	75	6.3	8	19	247	0.00	1012.601	0	0.000	0
20070929 06:00	10.6	10.6	10.6	75	6.3	8	32	247	0.00	1012.635	0	0.020	0
20070929 06:05	10.6	10.6	10.6	75	6.3	10	23	247	0.00	1012.601	0	0.000	0
20070929 06:10	10.6	10.6	10.6	76	6.5	11	23	247	0.00	1012.601	0	0.000	0
20070929 06:15	10.6	10.6	10.6	75	6.3	11	32	247	0.00	1012.669	0	0.000	0
20070929 06:20	10.7	10.7	10.7	74	6.2	13	24	247	0.00	1012.736	0	0.000	0
20070929 06:25	10.7	10.7	10.7	75	6.4	10	24	247	0.00	1012.736	0	0.000	0
20070929 06:30	10.6	10.6	10.6	75	6.3	10	24	247	0.00	1012.770	0	0.000	0
20070929 06:35	10.6	10.6	10.6	75	6.3	11	24	247	0.00	1012.906	0	0.000	0
20070929 06:40	10.5	10.5	10.5	76	6.4	10	26	247	0.00	1013.007	0	0.000	0
20070929 06:45	10.4	10.4	10.4	76	6.4	8	23	247	0.00	1013.075	0	0.000	0
20070929 06:50	10.4	10.4	10.4	76	6.4	10	23	247	0.00	1013.075	0	0.000	0
20070929 06:55	10.6	10.6	10.6	75	6.3	10	24	247	0.00	1013.177	0	0.000	0
20070929 07:00	10.7	10.7	10.7	75	6.4	10	19	247	0.00	1013.210	0	0.020	0
20070929 07:05	10.6	10.6	10.6	75	6.4	10	26	247	0.00	1013.346	0	0.000	0
20070929 07:10	10.7	10.7	10.7	75	6.4	10	27	247	0.00	1013.414	0	0.000	0
20070929 07:15	10.7	10.7	10.7	75	6.4	10	21	247	0.00	1013.515	0	0.000	0
20070929 07:20	10.6	10.6	10.6	76	6.5	8	24	247	0.00	1013.617	0	0.000	0
20070929 07:25	10.4	10.4	10.4	77	6.6	8	19	247	0.00	1013.684	0	0.000	0
20070929 07:30	10.4	10.4	10.4	78	6.8	8	19	247	0.00	1013.718	0	0.000	0
20070929 07:35	10.4	10.4	10.4	78	6.7	6	18	247	0.00	1013.786	0	0.000	0
20070929 07:40	10.3	10.3	10.3	80	7.0	6	18	225	0.00	1013.820	0	0.000	0
20070929 07:45	10.2	10.2	10.2	80	6.9	6	18	225	0.00	1013.989	0	0.000	0
20070929 07:50	10.1	10.1	10.1	81	7.0	5	11	225	0.00	1014.023	5	0.000	0
20070929 07:55	10.1	10.1	10.1	81	6.9	5	18	247	0.00	1014.125	5	0.000	0
20070929 08:00	10.0	10.0	10.0	81	6.9	5	11	225	0.00	1014.192	6	0.020	0
20070929 08:05	10.0	10.0	10.0	81	6.9	3	8	247	0.00	1014.192	9	0.000	0
20070929 08:10	9.9	9.9	9.9	81	6.8	5	8	247	0.00	1014.328	12	0.000	0
20070929 08:15	9.9	9.9	9.9	81	6.8	5	11	225	0.00	1014.396	21	0.000	0
20070929 08:20	9.9	9.9	9.9	81	6.8	5	13	247	0.00	1014.429	28	0.000	0
20070929 08:25	9.9	9.9	9.9	81	6.8	5	10	225	0.00	1014.531	23	0.000	0
20070929 08:30	10.0	10.0	10.0	81	6.9	5	14	247	0.00	1014.599	23	0.000	0
20070929 08:35	10.1	10.1	10.1	80	6.8	5	11	247	0.00	1014.666	24	0.000	0
20070929 08:40	10.2	10.2	10.2	79	6.7	6	16	247	0.00	1014.734	31	0.000	0
20070929 08:45	10.3	10.3	10.3	78	6.6	6	18	225	0.00	1014.768	44	0.000	0
20070929 08:50	10.4	10.4	10.4	78	6.7	5	14	247	0.00	1014.768	55	0.000	0
20070929 08:55	10.4	10.4	10.4	78	6.8	6	14	225	0.00	1014.904	63	0.000	0
20070929 09:00	10.5	10.5	10.5	78	6.8	6	16	247	0.00	1014.971	64	0.020	0
20070929 09:05	10.6	10.6	10.6	76	6.6	8	19	247	0.00	1014.971	65	0.000	0
20070929 09:10	10.7	10.7	10.7	76	6.7	5	16	225	0.00	1015.039	79	0.000	0
20070929 09:15	10.8	10.8	10.8	75	6.6	6	14	247	0.00	1014.971	109	0.000	0
20070929 09:20	10.9	10.9	10.9	74	6.5	5	19	247	0.00	1015.005	129	0.000	1
20070929 09:25	11.2	11.2	11.2	74	6.8	6	18	225	0.00	1015.005	119	0.000	1
20070929 09:30	11.3	11.3	11.3	74	6.9	8	29	225	0.00	1015.039	103	0.000	1
20070929 09:35	11.4	11.4	11.4	73	6.8	10	26	247	0.00	1015.073	104	0.000	1
20070929 09:40	11.4	11.4	11.4	71	6.4	8	19	247	0.00	1015.107	137	0.000	1
20070929 09:45	11.6	11.6	11.6	71	6.5	11	21	225	0.00	1015.141	152	0.000	1
20070929 09:50	11.6	11.6	11.6	71	6.5	10	24	247	0.00	1015.174	141	0.000	1
20070929 09:55	11.7	11.7	11.7	70	6.4	8	24	225	0.00	1015.276	137	0.000	1
20070929 10:00	11.7	11.7	11.7	71	6.6	8	16	247	0.00	1015.344	112	0.060	1
20070929 10:05	11.7	11.7	11.7	70	6.4	8	24	247	0.00	1015.581	78	0.000	1
20070929 10:10	11.7	11.7	11.7	69	6.2	10	23	247	0.00	1015.615	69	0.000	1
20070929 10:15	11.7	11.7	11.7	69	6.2	8	18	247	0.00	1015.649	66	0.000	1
20070929 10:20	11.8	11.8	11.8	69	6.3	10	27	247	0.00	1015.615	101	0.000	1
20070929 10:25	12.2	12.2	12.2	67	6.3	10	21	247	0.00	1015.445	144	0.000	1
20070929 10:30	12.4	12.4	12.4	65	6.0	11	27	247	0.00	1015.547	113	0.000	1
20070929 10:35	12.6	12.6	12.6	66	6.4	10	19	247	0.00	1015.547	62	0.000	1
20070929 10:40	12.8	12.8	12.8	65	6.4	10	26	225	0.00	1015.547	66	0.000	1
20070929 10:45	13.1	13.1	13.1	65	6.7	8	24	225	0.00	1015.479	71	0.000	1
20070929 10:50	13.3	13.3	13.3	61	6.0	10	24	225	0.00	1015.513	68	0.000	1
20070929 10:55	13.5	13.5	13.5	63	6.6	10	21	247	0.00	1015.615	52	0.000	0
20070929 11:00	13.6	13.6	13.6	59	5.7	11	23	247	0.00	1015.547	49	0.060	0
20070929 11:05	13.7	13.7	13.7	58	5.6	10	29	247	0.00	1015.445	49	0.000	0
20070929 11:10	13.8	13.8	13.8	58	5.7	13	31	247	0.00	1015.615	51	0.000	0
20070929 11:15	13.9	13.9	13.9	58	5.8	11	24	247	0.00	1015.615	51	0.000	0
20070929 11:20	14.0	14.0	14.0	59	6.1	11	24	247	0.00	1015.615	401	0.000	1
20070929 11:25	14.1	14.1	14.1	58	5.9	11	32	247	0.00	1015.615	536	0.000	2
20070929 11:30	14.2	14.2	14.2	59	6.3	14	26	247	0.00	1015.479	545	0.000	2
20070929 11:35	14.4	14.4	14.4	57	6.0	10	23	247	0.00	1015.547	548	0.000	2
20070929 11:40	14.5	14.5	14.5	58	6.3	13	29	247	0.00	1015.649	553	0.000	3
20070929 11:45	14.7	14.7	14.7	58	6.5	11	26	247	0.00	1015.649	557	0.000	3
20070929 11:50	15.0	15.0	15.0	58	6.8	10	23	247	0.00	1015.750	562	0.000	3
20070929 11:55	15.0	15.0	15.0	54	5.8	10	24	247	0.00	1015.581	567	0.000	3
20070929 12:00	15.0	15.0	15.0	56	6.3	11	23	247	0.00	1015.649	566	0.220	3
20070929 12:05	15.0	15.0	15.0	55	6.0	11	26	247	0.00	1015.581	576	0.000	3
20070929 12:10	15.0	15.0	15.0	54	5.8	13	24	247	0.00	1015.615	581	0.000	3
20070929 12:15	15.1	15.1	15.1	53	5.5	13	24	247	0.00	1015.581	582	0.000	3
20070929 12:20	15.2	15.2	15.2	53	5.7	14	29	247	0.00	1015.615	587	0.000	3
20070929 12:25	15.4	15.4	15.4	54	6.1	13	24	247	0.00	1015.750	589	0.000	3
20070929 12:30	15.4	15.4	15.4	52	5.6	13	26	270	0.00	1015.649	590	0.000	3
20070929 12:35	15.5	15.5	15.5	53	6.0	11	27	247	0.00	1015.818	596	0.000	3
20070929 12:40	15.6	15.6	15.6	52	5.8	11	21	247	0.00	1015.818	596	0.000	3
20070929 12:45	15.8	15.8	15.8	53	6.2	8	21	270	0.00	1015.818	598	0.000	3
20070929 12:50	15.8	15.8	15.8	52	5.9	11	23	270	0.00	1015.784	598	0.000	3
20070929 12:55	15.8	15.8	15.8	51	5.7	11	24	247	0.00	1015.750	580	0.000	3
20070929 13:00	15.9	15.9	15.9	53	6.3	10	19	270	0.00	1015.581	599	0.300	3
20070929 13:05	16.1	16.1	16.1	51	5.9	11	24	270	0.00	1015.615	598	0.000	3
20070929 13:10	16.1	16.1	16.1	51	5.9	13	24	270	0.00	1015.581	601	0.000	3
20070929 13:15	16.2	16.2	16.2	52	6.3	10	24	247	0.00	1015.581	599	0.000	3
20070929 13:20	16.3	16.3	16.3	52	6.4	11	26	270	0.00	1015.581	585	0.000	3
20070929 13:25	16.4	16.4	16.4	50	6.0	8	19	270	0.00	1015.615	600	0.000	3
20070929 13:30	16.4	16.4	16.4	50	6.0	13	23	270	0.00	1015.479	599	0.000	3
20070929 13:35	16.5	16.5	16.5	52	6.6	8	18	270	0.00	1015.513	596	0.000	3
20070929 13:40	16.6	16.6	16.6	51	6.4	10	21	270	0.00	1015.513	592	0.000	3
20070929 13:45	16.7	16.7	16.7	51	6.5	8	23	270	0.00	1015.513	585	0.000	3
20070929 13:50	16.7	16.7	16.7	50	6.2	6	19	270	0.00	1015.479	585	0.000	3
20070929 13:55	16.7	16.7	16.7	50	6.2	8	18	247	0.00	1015.513	579	0.000	3
20070929 14:00	16.7	16.7	16.7	49	5.9	8	18	247	0.00	1015.547	579	0.300	3
20070929 14:05	16.7	16.7	16.7	49	5.9	8	21	247	0.00	1015.513	580	0.000	3
20070929 14:10	16.6	16.6	16.6	51	6.4	6	19	247	0.00	1015.479	573	0.000	3
20070929 14:15	16.9	16.9	16.9	51	6.7	8	16	247	0.00	1015.479	567	0.000	3
20070929 14:20	17.1	17.1	17.1	49	6.3	6	16	247	0.00	1015.378	566	0.000	3
20070929 14:25	17.2	17.2	17.2	48	6.1	8	18	247	0.00	1015.445	561	0.000	3
20070929 14:30	17.2	17.2	17.2	47	5.8	6	14	247	0.00	1015.479	551	0.000	3
20070929 14:35	17.3	17.3	17.3	48	6.2	6	16	247	0.00	1015.513	580	0.000	3
20070929 14:40	17.3	17.3	17.3	48	6.2	6	16	247	0.00	1015.411	547	0.000	2
20070929 14:45	17.4	17.4	17.4	48	6.3	5	11	270	0.00	1015.411	535	0.000	2
20070929 14:50	17.3	17.3	17.3	48	6.2	6	14	270	0.00	1015.479	524	0.000	2
20070929 14:55	17.2	17.2	17.2	49	6.4	5	10	292	0.00	1015.445	524	0.000	2
20070929 15:00	17.2	17.2	17.2	51	7.0	6	16	270	0.00	1015.445	467	0.260	2
20070929 15:05	17.2	17.2	17.2	47	5.8	8	18	270	0.00	1015.513	228	0.000	2
20070929 15:10	17.0	17.0	17.0	48	5.9	5	10	270	0.00	1015.513	190	0.000	2
20070929 15:15	17.0	17.0	17.0	50	6.5	3	10	270	0.00	1015.513	298	0.000	2
20070929 15:20	17.3	17.3	17.3	51	7.0	5	18	247	0.00	1015.513	578	0.000	2
20070929 15:25	17.4	17.4	17.4	47	6.0	6	14	247	0.00	1015.513	458	0.000	2
20070929 15:30	17.4	17.4	17.4	50	6.9	3	10	247	0.00	1015.513	194	0.000	2
20070929 15:35	17.3	17.3	17.3	48	6.2	3	10	247	0.00	1015.513	247	0.000	1
20070929 15:40	17.2	17.2	17.2	49	6.4	5	14	247	0.00	1015.513	71	0.000	1
20070929 15:45	17.2	17.2	17.2	49	6.4	2	8	247	0.00	1015.513	69	0.000	1
20070929 15:50	17.2	17.2	17.2	48	6.1	5	10	247	0.00	1015.513	65	0.000	1
20070929 15:55	17.1	17.1	17.1	51	6.9	3	8	270	0.00	1015.445	61	0.000	1
20070929 16:00	17.1	17.1	17.1	50	6.6	2	11	225	0.00	1015.479	62	0.120	1
20070929 16:05	17.1	17.1	17.1	48	6.0	3	10	225	0.00	1015.479	60	0.000	1
20070929 16:10	17.0	17.0	17.0	50	6.5	5	10	270	0.00	1015.513	58	0.000	1
20070929 16:15	16.8	16.8	16.8	51	6.6	5	11	247	0.00	1015.682	98	0.000	1
20070929 16:20	16.8	16.8	16.8	51	6.6	3	8	247	0.00	1015.750	99	0.000	1
20070929 16:25	16.8	16.8	16.8	51	6.6	5	10	270	0.00	1015.750	117	0.000	1
20070929 16:30	16.8	16.8	16.8	50	6.3	3	11	270	0.00	1015.649	86	0.000	1
20070929 16:35	16.9	16.9	16.9	50	6.4	3	10	270	0.00	1015.750	53	0.000	0
20070929 16:40	16.9	16.9	16.9	49	6.2	3	10	247	0.00	1015.581	53	0.000	0
20070929 16:45	17.0	17.0	17.0	49	6.2	2	5	247	0.00	1015.649	57	0.000	0
20070929 16:50	17.0	17.0	17.0	49	6.2	2	6	247	0.00	1015.649	68	0.000	1
20070929 16:55	17.0	17.0	17.0	49	6.2	2	6	247	0.00	1015.649	59	0.000	0
20070929 17:00	16.9	16.9	16.9	49	6.2	2	5	247	0.00	1015.581	49	0.060	0
20070929 17:05	16.9	16.9	16.9	50	6.4	2	6	247	0.00	1015.784	48	0.000	0
20070929 17:10	16.8	16.8	16.8	50	6.3	2	6	270	0.00	1015.750	41	0.000	0
20070929 17:15	16.8	16.8	16.8	49	6.1	2	10	202	0.00	1015.784	40	0.000	0
20070929 17:20	16.8	16.8	16.8	51	6.6	2	3	202	0.00	1015.784	33	0.000	0
20070929 17:25	16.7	16.7	16.7	52	6.8	2	3	247	0.00	1015.886	38	0.000	0
20070929 17:30	16.6	16.6	16.6	53	7.0	2	5	247	0.00	1015.886	57	0.000	0
20070929 17:35	16.6	16.6	16.6	53	7.0	2	5	247	0.00	1015.716	77	0.000	0
20070929 17:40	16.7	16.7	16.7	54	7.3	0	2	247	0.00	1015.784	68	0.000	0
20070929 17:45	16.6	16.6	16.6	52	6.7	2	5	247	0.00	1015.818	65	0.000	0
20070929 17:50	16.6	16.6	16.6	53	7.0	2	6	247	0.00	1015.852	62	0.000	0
20070929 17:55	16.6	16.6	16.6	53	6.9	2	6	225	0.00	1015.818	57	0.000	0
20070929 18:00	16.4	16.4	16.4	53	6.8	0	2	225	0.00	1015.750	49	0.040	0
20070929 18:05	16.3	16.3	16.3	55	7.2	0	5	180	0.00	1015.852	42	0.000	0
20070929 18:10	16.1	16.1	16.1	55	7.0	0	3	157	0.00	1015.953	35	0.000	0
20070929 18:15	15.9	15.9	15.9	55	6.9	0	5	157	0.00	1015.987	33	0.000	0
20070929 18:20	15.8	15.8	15.8	55	6.8	2	5	157	0.00	1016.055	30	0.000	0
20070929 18:25	15.6	15.6	15.6	57	7.1	0	3	157	0.00	1016.224	26	0.000	0
20070929 18:30	15.4	15.4	15.4	57	7.0	0	3	157	0.00	1016.326	23	0.000	0
20070929 18:35	15.2	15.2	15.2	58	7.0	0	3	157	0.00	1016.326	19	0.000	0
20070929 18:40	15.0	15.0	15.0	61	7.5	0	0	157	0.00	1016.258	13	0.000	0
20070929 18:45	15.0	15.0	15.0	62	7.8	0	0	157	0.00	1016.292	10	0.000	0
20070929 18:50	14.7	14.7	14.7	63	7.7	0	0	157	0.00	1016.360	6	0.000	0
20070929 18:55	14.3	14.3	14.3	64	7.6	0	0	157	0.00	1016.563	0	0.000	0
20070929 19:00	14.0	14.0	14.0	66	7.7	0	0	157	0.00	1016.631	0	0.020	0
20070929 19:05	13.7	13.7	13.7	68	7.9	0	0	157	0.00	1016.800	0	0.000	0
20070929 19:10	13.3	13.3	13.3	71	8.2	0	0	157	0.00	1016.901	0	0.000	0
20070929 19:15	13.1	13.1	13.1	71	8.0	0	0	157	0.00	1016.901	0	0.000	0
20070929 19:20	12.9	12.9	12.9	73	8.2	0	0	157	0.00	1017.105	0	0.000	0
20070929 19:25	12.7	12.7	12.7	74	8.2	0	0	157	0.00	1017.206	0	0.000	0
20070929 19:30	12.4	12.4	12.4	75	8.1	0	0	157	0.00	1017.308	0	0.000	0
20070929 19:35	12.3	12.3	12.3	77	8.4	0	0	157	0.00	1017.342	0	0.000	0
20070929 19:40	12.1	12.1	12.1	76	8.0	0	0	157	0.00	1017.376	0	0.000	0
20070929 19:45	11.9	11.9	11.9	78	8.2	0	0	157	0.00	1017.443	0	0.000	0
20070929 19:50	11.8	11.8	11.8	78	8.1	0	3	157	0.00	1017.511	0	0.000	0
20070929 19:55	11.7	11.7	11.7	79	8.2	0	0	157	0.00	1017.579	0	0.000	0
20070929 20:00	11.7	11.7	11.7	78	8.0	0	0	157	0.00	1017.511	0	0.000	0
20070929 20:05	11.6	11.6	11.6	78	7.9	0	0	157	0.00	1017.443	0	0.000	0
20070929 20:10	11.5	11.5	11.5	79	8.0	0	0	157	0.00	1017.477	0	0.000	0
20070929 20:15	11.3	11.3	11.3	78	7.6	0	0	157	0.00	1017.545	0	0.000	0
20070929 20:20	11.2	11.2	11.2	80	7.9	0	0	157	0.00	1017.647	0	0.000	0
20070929 20:25	11.1	11.1	11.1	80	7.7	0	0	157	0.00	1017.748	0	0.000	0
20070929 20:30	10.9	10.9	10.9	81	7.8	0	0	157	0.00	1017.816	0	0.000	0
20070929 20:35	10.7	10.7	10.7	81	7.6	0	0	157	0.00	1017.850	0	0.000	0
20070929 20:40	10.6	10.6	10.6	82	7.6	0	0	157	0.00	1017.850	0	0.000	0
20070929 20:45	10.4	10.4	10.4	83	7.6	0	0	157	0.00	1017.985	0	0.000	0
20070929 20:50	10.2	10.2	10.2	83	7.5	0	0	157	0.00	1018.053	0	0.000	0
20070929 20:55	10.1	10.1	10.1	84	7.5	0	0	157	0.00	1018.222	0	0.000	0
20070929 21:00	9.9	9.9	9.9	84	7.4	0	0	157	0.00	1018.290	0	0.020	0
20070929 21:05	9.8	9.8	9.8	85	7.4	0	0	157	0.00	1018.188	0	0.000	0
20070929 21:10	9.7	9.7	9.7	85	7.3	0	0	157	0.00	1018.256	0	0.000	0
20070929 21:15	9.6	9.6	9.6	86	7.4	0	0	157	0.00	1018.324	0	0.000	0
20070929 21:20	9.6	9.6	9.6	86	7.3	0	0	157	0.00	1018.459	0	0.000	0
20070929 21:25	9.5	9.5	9.5	87	7.4	0	0	157	0.00	1018.527	0	0.000	0
20070929 21:30	9.4	9.4	9.4	87	7.4	0	0	157	0.00	1018.629	0	0.000	0
20070929 21:35	9.5	9.5	9.5	87	7.4	0	2	157	0.00	1018.662	0	0.000	0
20070929 21:40	9.6	9.6	9.6	87	7.5	0	0	157	0.00	1018.730	0	0.000	0
20070929 21:45	9.6	9.6	9.6	87	7.6	0	2	157	0.00	1018.832	0	0.000	0
20070929 21:50	9.8	9.8	9.8	87	7.7	0	0	157	0.00	1018.933	0	0.000	0
20070929 21:55	9.8	9.8	9.8	86	7.6	0	0	157	0.00	1019.001	0	0.000	0
20070929 22:00	9.8	9.8	9.8	86	7.5	0	0	157	0.00	1019.137	0	0.000	0
20070929 22:05	9.8	9.8	9.8	86	7.5	0	0	157	0.00	1018.899	0	0.000	0
20070929 22:10	9.7	9.7	9.7	86	7.5	0	0	157	0.00	1018.933	0	0.000	0
20070929 22:15	9.7	9.7	9.7	86	7.4	0	0	157	0.00	1019.001	0	0.000	0
20070929 22:20	9.6	9.6	9.6	86	7.4	0	0	157	0.00	1019.035	0	0.000	0
20070929 22:25	9.6	9.6	9.6	86	7.4	0	0	157	0.00	1019.103	0	0.000	0
20070929 22:30	9.6	9.6	9.6	87	7.5	0	2	157	0.00	1019.170	0	0.000	0
20070929 22:35	9.6	9.6	9.6	86	7.4	0	2	157	0.00	1019.035	0	0.000	0
20070929 22:40	9.7	9.7	9.7	86	7.5	0	3	157	0.00	1018.933	0	0.000	0
20070929 22:45	9.8	9.8	9.8	86	7.5	0	3	157	0.00	1018.866	0	0.000	0
20070929 22:50	9.9	9.9	9.9	85	7.5	0	5	157	0.00	1018.798	0	0.000	0
20070929 22:55	10.0	10.0	10.0	85	7.6	0	3	157	0.00	1018.866	0	0.000	0
20070929 23:00	10.2	10.2	10.2	84	7.6	0	2	157	0.00	1018.967	0	0.000	0
20070929 23:05	10.2	10.2	10.2	85	7.8	0	2	157	0.00	1019.001	0	0.000	0
20070929 23:10	10.2	10.2	10.2	84	7.6	0	2	157	0.00	1019.001	0	0.000	0
20070929 23:15	10.2	10.2	10.2	85	7.8	0	0	157	0.00	1019.035	0	0.000	0
20070929 23:20	10.1	10.1	10.1	85	7.7	0	0	157	0.00	1019.170	0	0.000	0
20070929 23:25	10.0	10.0	10.0	85	7.6	0	2	157	0.00	1019.170	0	0.000	0
20070929 23:30	10.0	10.0	10.0	86	7.8	0	2	157	0.00	1019.103	0	0.000	0
20070929 23:35	10.0	10.0	10.0	89	8.3	0	3	157	0.00	1019.170	0	0.000	0
20070929 23:40	10.0	10.0	10.0	86	7.8	0	5	157	0.00	1019.069	0	0.000	0
20070929 23:45	10.0	10.0	10.0	85	7.6	0	3	157	0.00	1019.137	0	0.000	0
20070929 23:50	9.9	9.9	9.9	85	7.5	0	3	157	0.00	1019.170	0	0.000	0
20070929 23:55	9.9	9.9	9.9	85	7.5	2	5	157	0.00	1019.340	0	0.000	0
20070929 24:00	9.8	9.8	9.8	85	7.4	0	2	157	0.00	1019.272	0	0.000	0



Please note the license to use and transfer of this data:
http://creativecommons.org/licenses/by-nc-sa/3.0/deed.en

Bitte beachten sie die Lizenz zur Verwertung und Weitergabe der Daten:
http://creativecommons.org/licenses/by-nc-sa/3.0/deed.de

zurück zur Übersicht der Archivdaten (Monats und Tagesdaten)

Cookies helfen bei der Bereitstellung von Inhalten. Durch die Nutzung dieser Seiten erklärst du dich damit einverstanden, dass Cookies auf deinem Rechner gespeichert werden. Weitere Information